Time,TemperatureF,DewpointF,PressureIn,WindDirection,WindDirectionDegrees,WindSpeedMPH,WindSpeedGustMPH,Humidity,HourlyPrecipIn,Conditions,Clouds,dailyrainin,SoftwareType,DateUTC
2013-01-11 00:02:00,34.4,32.0,29.72,ESE,120,10.0,-999.0,91,-99.99,,,0.21,weatherlink.com 1.10,2013-01-11 06:02:00,
2013-01-11 00:17:00,34.4,32.0,29.71,SE,135,3.0,-999.0,91,-99.99,,,0.00,weatherlink.com 1.10,2013-01-11 06:17:00,
2013-01-11 00:31:00,34.4,32.0,29.70,SE,131,6.0,-999.0,91,-99.99,,,0.00,weatherlink.com 1.10,2013-01-11 06:31:00,
2013-01-11 00:46:00,34.4,32.0,29.70,ESE,114,5.0,-999.0,91,-99.99,,,0.00,weatherlink.com 1.10,2013-01-11 06:46:00,
2013-01-11 01:00:00,34.4,32.0,29.69,SE,127,3.0,-999.0,91,-99.99,,,0.00,weatherlink.com 1.10,2013-01-11 07:00:00,
2013-01-11 01:14:00,34.4,32.0,29.68,ESE,122,6.0,-999.0,91,-99.99,,,0.00,weatherlink.com 1.10,2013-01-11 07:14:00,
2013-01-11 01:29:00,34.4,32.0,29.67,ESE,115,8.0,-999.0,91,-99.99,,,0.00,weatherlink.com 1.10,2013-01-11 07:29:00,
2013-01-11 01:43:00,34.4,32.0,29.66,SE,133,5.0,-999.0,91,-99.99,,,0.00,weatherlink.com 1.10,2013-01-11 07:43:00,
2013-01-11 01:57:00,34.5,32.0,29.66,SE,143,6.0,-999.0,91,-99.99,,,0.00,weatherlink.com 1.10,2013-01-11 07:57:00,
2013-01-11 02:11:00,34.6,32.0,29.66,SE,132,3.0,-999.0,91,-99.99,,,0.00,weatherlink.com 1.10,2013-01-11 08:11:00,
2013-01-11 02:26:00,34.6,32.0,29.66,ESE,115,5.0,-999.0,91,-99.99,,,0.00,weatherlink.com 1.10,2013-01-11 08:26:00,
2013-01-11 02:40:00,34.6,32.0,29.65,SE,127,4.0,-999.0,91,-99.99,,,0.00,weatherlink.com 1.10,2013-01-11 08:40:00,
2013-01-11 02:54:00,34.6,32.0,29.64,SE,138,7.0,-999.0,91,-99.99,,,0.00,weatherlink.com 1.10,2013-01-11 08:54:00,
2013-01-11 03:08:00,34.6,33.0,29.63,East,100,9.0,-999.0,92,-99.99,,,0.00,weatherlink.com 1.10,2013-01-11 09:08:00,
2013-01-11 03:23:00,34.7,33.0,29.63,SE,128,4.0,-999.0,92,-99.99,,,0.00,weatherlink.com 1.10,2013-01-11 09:23:00,
2013-01-11 03:37:00,34.8,33.0,29.63,ESE,118,4.0,-999.0,92,-99.99,,,0.00,weatherlink.com 1.10,2013-01-11 09:37:00,
2013-01-11 03:51:00,34.8,33.0,29.62,SE,142,3.0,-999.0,92,-99.99,,,0.00,weatherlink.com 1.10,2013-01-11 09:51:00,
2013-01-11 04:05:00,34.8,33.0,29.62,SSE,149,6.0,-999.0,92,-99.99,,,0.00,weatherlink.com 1.10,2013-01-11 10:05:00,
2013-01-11 04:20:00,34.9,33.0,29.61,SE,125,4.0,-999.0,92,-99.99,,,0.00,weatherlink.com 1.10,2013-01-11 10:20:00,
2013-01-11 04:34:00,34.9,33.0,29.61,ESE,112,5.0,-999.0,92,-99.99,,,0.00,weatherlink.com 1.10,2013-01-11 10:34:00,
2013-01-11 04:48:00,34.9,33.0,29.61,SE,143,2.0,-999.0,92,-99.99,,,0.00,weatherlink.com 1.10,2013-01-11 10:48:00,
2013-01-11 05:02:00,34.9,33.0,29.59,SE,124,3.0,-999.0,92,-99.99,,,0.00,weatherlink.com 1.10,2013-01-11 11:02:00,
2013-01-11 05:17:00,34.8,33.0,29.59,SE,146,2.0,-999.0,92,-99.99,,,0.01,weatherlink.com 1.10,2013-01-11 11:17:00,
2013-01-11 05:31:00,34.8,33.0,29.58,ESE,111,5.0,-999.0,92,-99.99,,,0.01,weatherlink.com 1.10,2013-01-11 11:31:00,
2013-01-11 05:45:00,34.8,33.0,29.58,SE,124,3.0,-999.0,92,-99.99,,,0.01,weatherlink.com 1.10,2013-01-11 11:45:00,
2013-01-11 05:59:00,34.8,33.0,29.58,SE,125,2.0,-999.0,92,-99.99,,,0.01,weatherlink.com 1.10,2013-01-11 11:59:00,
2013-01-11 06:14:00,34.7,33.0,29.58,SE,125,2.0,-999.0,92,-99.99,,,0.01,weatherlink.com 1.10,2013-01-11 12:14:00,
2013-01-11 06:28:00,34.7,33.0,29.57,ESE,110,4.0,-999.0,92,-99.99,,,0.01,weatherlink.com 1.10,2013-01-11 12:28:00,
2013-01-11 06:43:00,34.7,33.0,29.57,SE,127,4.0,-999.0,92,-99.99,,,0.01,weatherlink.com 1.10,2013-01-11 12:43:00,
2013-01-11 06:57:00,34.4,32.0,29.56,ESE,110,6.0,-999.0,92,-99.99,,,0.01,weatherlink.com 1.10,2013-01-11 12:57:00,
2013-01-11 07:11:00,34.5,32.0,29.56,ESE,109,7.0,-999.0,92,-99.99,,,0.01,weatherlink.com 1.10,2013-01-11 13:11:00,
2013-01-11 07:25:00,34.5,32.0,29.56,SE,124,3.0,-999.0,92,-99.99,,,0.01,weatherlink.com 1.10,2013-01-11 13:25:00,
2013-01-11 07:40:00,34.5,32.0,29.56,SE,131,3.0,-999.0,92,-99.99,,,0.01,weatherlink.com 1.10,2013-01-11 13:40:00,
2013-01-11 07:54:00,34.6,33.0,29.56,ESE,104,6.0,-999.0,92,-99.99,,,0.01,weatherlink.com 1.10,2013-01-11 13:54:00,
2013-01-11 08:08:00,34.8,33.0,29.56,SE,129,2.0,-999.0,92,-99.99,,,0.01,weatherlink.com 1.10,2013-01-11 14:08:00,
2013-01-11 08:23:00,34.9,33.0,29.55,ESE,114,4.0,-999.0,92,-99.99,,,0.01,weatherlink.com 1.10,2013-01-11 14:23:00,
2013-01-11 08:37:00,35.2,33.0,29.56,ESE,112,4.0,-999.0,92,-99.99,,,0.01,weatherlink.com 1.10,2013-01-11 14:37:00,
2013-01-11 08:51:00,35.5,33.0,29.55,SSE,158,7.0,-999.0,92,-99.99,,,0.01,weatherlink.com 1.10,2013-01-11 14:51:00,
2013-01-11 09:05:00,35.7,34.0,29.54,ESE,116,4.0,-999.0,92,-99.99,,,0.01,weatherlink.com 1.10,2013-01-11 15:05:00,
2013-01-11 09:20:00,35.9,34.0,29.54,SSE,149,2.0,-999.0,92,-99.99,,,0.01,weatherlink.com 1.10,2013-01-11 15:20:00,
2013-01-11 09:34:00,36.1,34.0,29.55,SSE,147,3.0,-999.0,92,-99.99,,,0.01,weatherlink.com 1.10,2013-01-11 15:34:00,
2013-01-11 09:48:00,36.2,34.0,29.56,SSW,201,2.0,-999.0,92,-99.99,,,0.01,weatherlink.com 1.10,2013-01-11 15:48:00,
2013-01-11 10:02:00,36.3,34.0,29.56,South,182,0.0,-999.0,92,-99.99,,,0.01,weatherlink.com 1.10,2013-01-11 16:02:00,
2013-01-11 10:17:00,36.4,34.0,29.56,South,183,2.0,-999.0,92,-99.99,,,0.01,weatherlink.com 1.10,2013-01-11 16:17:00,
2013-01-11 10:31:00,36.4,34.0,29.55,ESE,118,4.0,-999.0,92,-99.99,,,0.01,weatherlink.com 1.10,2013-01-11 16:31:00,
2013-01-11 10:45:00,36.5,34.0,29.54,SE,127,4.0,-999.0,92,-99.99,,,0.01,weatherlink.com 1.10,2013-01-11 16:45:00,
2013-01-11 11:00:00,36.6,34.0,29.54,SE,137,6.0,-999.0,92,-99.99,,,0.01,weatherlink.com 1.10,2013-01-11 17:00:00,
2013-01-11 11:14:00,36.6,34.0,29.53,ESE,115,4.0,-999.0,92,-99.99,,,0.01,weatherlink.com 1.10,2013-01-11 17:14:00,
2013-01-11 11:28:00,36.7,35.0,29.52,ESE,111,6.0,-999.0,92,-99.99,,,0.01,weatherlink.com 1.10,2013-01-11 17:28:00,
2013-01-11 11:42:00,36.6,34.0,29.51,ESE,112,6.0,-999.0,92,-99.99,,,0.01,weatherlink.com 1.10,2013-01-11 17:42:00,
2013-01-11 11:57:00,36.6,34.0,29.51,ESE,118,4.0,-999.0,92,-99.99,,,0.01,weatherlink.com 1.10,2013-01-11 17:57:00,
2013-01-11 12:11:00,36.8,35.0,29.50,ESE,115,4.0,-999.0,92,-99.99,,,0.01,weatherlink.com 1.10,2013-01-11 18:11:00,
2013-01-11 12:26:00,36.9,35.0,29.49,SE,126,5.0,-999.0,93,-99.99,,,0.01,weatherlink.com 1.10,2013-01-11 18:26:00,
2013-01-11 12:40:00,36.9,35.0,29.48,ESE,116,8.0,-999.0,92,-99.99,,,0.01,weatherlink.com 1.10,2013-01-11 18:40:00,
2013-01-11 12:54:00,37.0,35.0,29.48,SE,125,5.0,-999.0,92,-99.99,,,0.01,weatherlink.com 1.10,2013-01-11 18:54:00,
2013-01-11 13:08:00,37.1,35.0,29.48,SE,143,3.0,-999.0,92,-99.99,,,0.01,weatherlink.com 1.10,2013-01-11 19:08:00,
2013-01-11 13:23:00,37.0,35.0,29.47,ESE,119,4.0,-999.0,92,-99.99,,,0.01,weatherlink.com 1.10,2013-01-11 19:23:00,
2013-01-11 13:37:00,37.1,35.0,29.47,SE,133,2.0,-999.0,92,-99.99,,,0.01,weatherlink.com 1.10,2013-01-11 19:37:00,
2013-01-11 13:51:00,37.2,35.0,29.47,SE,127,8.0,-999.0,92,-99.99,,,0.01,weatherlink.com 1.10,2013-01-11 19:51:00,
2013-01-11 14:05:00,36.9,35.0,29.46,SE,126,3.0,-999.0,92,-99.99,,,0.01,weatherlink.com 1.10,2013-01-11 20:05:00,
2013-01-11 14:20:00,37.0,35.0,29.47,SE,132,3.0,-999.0,92,-99.99,,,0.01,weatherlink.com 1.10,2013-01-11 20:20:00,
2013-01-11 14:34:00,37.0,35.0,29.46,ESE,122,5.0,-999.0,92,-99.99,,,0.01,weatherlink.com 1.10,2013-01-11 20:34:00,
2013-01-11 14:48:00,36.9,35.0,29.45,ESE,102,3.0,-999.0,92,-99.99,,,0.01,weatherlink.com 1.10,2013-01-11 20:48:00,
2013-01-11 15:02:00,36.8,35.0,29.44,ENE,60,4.0,-999.0,92,-99.99,,,0.01,weatherlink.com 1.10,2013-01-11 21:02:00,
2013-01-11 15:17:00,36.7,35.0,29.44,ESE,120,4.0,-999.0,92,-99.99,,,0.01,weatherlink.com 1.10,2013-01-11 21:17:00,
2013-01-11 15:31:00,36.8,35.0,29.45,ESE,110,3.0,-999.0,93,-99.99,,,0.01,weatherlink.com 1.10,2013-01-11 21:31:00,
2013-01-11 15:45:00,36.9,35.0,29.44,ESE,113,3.0,-999.0,93,-99.99,,,0.01,weatherlink.com 1.10,2013-01-11 21:45:00,
2013-01-11 16:00:00,37.1,35.0,29.43,East,79,3.0,-999.0,92,-99.99,,,0.01,weatherlink.com 1.10,2013-01-11 22:00:00,
2013-01-11 16:14:00,36.9,35.0,29.43,ENE,70,9.0,-999.0,93,-99.99,,,0.02,weatherlink.com 1.10,2013-01-11 22:14:00,
2013-01-11 16:28:00,36.8,35.0,29.43,SE,134,3.0,-999.0,92,-99.99,,,0.02,weatherlink.com 1.10,2013-01-11 22:28:00,
2013-01-11 16:43:00,36.8,35.0,29.41,East,81,2.0,-999.0,92,-99.99,,,0.02,weatherlink.com 1.10,2013-01-11 22:43:00,
2013-01-11 16:57:00,36.9,35.0,29.42,SE,130,4.0,-999.0,92,-99.99,,,0.02,weatherlink.com 1.10,2013-01-11 22:57:00,
2013-01-11 17:11:00,37.1,35.0,29.42,ESE,120,3.0,-999.0,93,-99.99,,,0.02,weatherlink.com 1.10,2013-01-11 23:11:00,
2013-01-11 17:25:00,37.3,35.0,29.41,ESE,118,5.0,-999.0,93,-99.99,,,0.02,weatherlink.com 1.10,2013-01-11 23:25:00,
2013-01-11 17:40:00,37.7,36.0,29.39,East,85,7.0,-999.0,93,-99.99,,,0.02,weatherlink.com 1.10,2013-01-11 23:40:00,
2013-01-11 17:54:00,38.1,36.0,29.40,SE,137,6.0,-999.0,93,-99.99,,,0.02,weatherlink.com 1.10,2013-01-11 23:54:00,
2013-01-11 18:09:00,38.6,37.0,29.39,ESE,120,6.0,-999.0,93,-99.99,,,0.02,weatherlink.com 1.10,2013-01-12 00:09:00,
2013-01-11 18:23:00,38.8,37.0,29.38,SE,125,6.0,-999.0,93,-99.99,,,0.02,weatherlink.com 1.10,2013-01-12 00:23:00,
2013-01-11 18:37:00,38.9,37.0,29.39,ESE,110,5.0,-999.0,93,-99.99,,,0.02,weatherlink.com 1.10,2013-01-12 00:37:00,
2013-01-11 18:51:00,39.1,37.0,29.39,ESE,123,5.0,-999.0,93,-99.99,,,0.02,weatherlink.com 1.10,2013-01-12 00:51:00,
2013-01-11 19:06:00,39.3,37.0,29.39,SSE,164,9.0,-999.0,93,-99.99,,,0.02,weatherlink.com 1.10,2013-01-12 01:06:00,
2013-01-11 19:20:00,39.4,38.0,29.38,SE,133,4.0,-999.0,93,-99.99,,,0.02,weatherlink.com 1.10,2013-01-12 01:20:00,
2013-01-11 19:34:00,39.3,37.0,29.38,SE,126,3.0,-999.0,93,-99.99,,,0.02,weatherlink.com 1.10,2013-01-12 01:34:00,
2013-01-11 19:49:00,39.5,38.0,29.37,ESE,119,5.0,-999.0,93,-99.99,,,0.02,weatherlink.com 1.10,2013-01-12 01:49:00,
2013-01-11 20:03:00,39.6,38.0,29.38,SE,129,2.0,-999.0,93,-99.99,,,0.02,weatherlink.com 1.10,2013-01-12 02:03:00,
2013-01-11 20:17:00,39.5,38.0,29.38,SE,137,1.0,-999.0,93,-99.99,,,0.02,weatherlink.com 1.10,2013-01-12 02:17:00,
2013-01-11 20:31:00,39.5,38.0,29.37,ESE,118,4.0,-999.0,93,-99.99,,,0.02,weatherlink.com 1.10,2013-01-12 02:31:00,
2013-01-11 20:46:00,39.4,38.0,29.37,SE,144,3.0,-999.0,93,-99.99,,,0.02,weatherlink.com 1.10,2013-01-12 02:46:00,
2013-01-11 21:00:00,39.5,38.0,29.37,ESE,122,3.0,-999.0,93,-99.99,,,0.02,weatherlink.com 1.10,2013-01-12 03:00:00,
2013-01-11 21:14:00,39.6,38.0,29.37,SSE,154,0.0,-999.0,93,-99.99,,,0.02,weatherlink.com 1.10,2013-01-12 03:14:00,
2013-01-11 21:28:00,39.7,38.0,29.37,SE,141,2.0,-999.0,93,-99.99,,,0.02,weatherlink.com 1.10,2013-01-12 03:28:00,
2013-01-11 21:43:00,39.8,38.0,29.36,SSE,156,3.0,-999.0,93,-99.99,,,0.02,weatherlink.com 1.10,2013-01-12 03:43:00,
2013-01-11 21:57:00,40.1,38.0,29.36,SSE,165,7.0,-999.0,93,-99.99,,,0.02,weatherlink.com 1.10,2013-01-12 03:57:00,
2013-01-11 22:11:00,39.8,38.0,29.36,SSE,168,13.0,-999.0,93,-99.99,,,0.02,weatherlink.com 1.10,2013-01-12 04:11:00,
2013-01-11 22:25:00,39.3,37.0,29.36,South,181,7.0,-999.0,93,-99.99,,,0.02,weatherlink.com 1.10,2013-01-12 04:25:00,
2013-01-11 22:40:00,38.6,37.0,29.36,South,176,6.0,-999.0,93,-99.99,,,0.02,weatherlink.com 1.10,2013-01-12 04:40:00,
2013-01-11 22:54:00,37.9,36.0,29.37,SSW,197,2.0,-999.0,93,-99.99,,,0.02,weatherlink.com 1.10,2013-01-12 04:54:00,
2013-01-11 23:08:00,37.4,36.0,29.38,SSW,203,1.0,-999.0,93,-99.99,,,0.02,weatherlink.com 1.10,2013-01-12 05:08:00,
2013-01-11 23:23:00,37.0,35.0,29.38,SSW,205,8.0,-999.0,93,-99.99,,,0.02,weatherlink.com 1.10,2013-01-12 05:23:00,
2013-01-11 23:37:00,36.7,35.0,29.38,WSW,244,6.0,-999.0,92,-99.99,,,0.02,weatherlink.com 1.10,2013-01-12 05:37:00,
2013-01-11 23:51:00,36.5,35.0,29.38,SSW,207,13.0,-999.0,93,-99.99,,,0.02,weatherlink.com 1.10,2013-01-12 05:51:00,